Погода в Глинске

Украина / Винницкая область     49°34′31″N   28°27′51″E
темп.,
°C
ветер,
м/с
пор.,
м/с
влажн.,
%
обл.,
%
осадки,
мм/ч
давл.,
гПа
погр.,
м
25 июня, сб
сб2500:00+15ссв34755 0.0 101447
03:00+13ссв34865 0.0 101546
06:00+13св369198 0.0 1015105
09:00+19св46704 0.0 1016566
12:00+23всв565583 0.0 10161638
15:00+22св4559100 0.1 10161016
18:00+22в456499 0.2 1016837
21:00+18в227850 0.3 101616
26 июня, вс
вс2600:00+15всв22885 0.0 101723
03:00+14св349314 0.0 101861
06:00+15св389127 0.0 1018191
09:00+20всв5771100 0.0 1019807
12:00+24в685497 0.1 10191622
15:00+23всв566311 1.2 10191431
18:00+20св3584100 1.4 1019182
21:00+19всв228299 2.1 101912
27 июня, пн
пн2700:00+17всв229153 0.4 102128
03:00+16всв349315 0.4 102065
06:00+17всв379489 0.0 1021167
09:00+21в4775100 0.1 1021445
12:00+26в584899 0.1 10212218
15:00+28в673626 0.1 10202644
18:00+28всв464598 0.0 10192296
21:00+22всв41167100 0.0 1020226
28 июня, вт
вт2800:00+21вюв2266100 0.0 102117
03:00+21ссв2262100 0.0 102018
06:00+18св337695 0.0 102037
09:00+24всв3564100 0.0 1020468
12:00+26в356321 1.6 10201204
15:00+28св355180 2.4 10191474
18:00+20ссз568796 1.7 101876
21:00+20ссв7139098 3.1 1019335
29 июня, ср
ср2900:00+18всв4991100 2.9 1020156
03:00+17в359296 2.9 101983
06:00+18в119118 0.0 101911
09:00+23всв347980 0.0 1019405
12:00+27в346386 2.6 10191057
15:00+29в344796 2.6 10181771
18:00+27всв3557100 0.0 1017439
21:00+23юв366785 0.0 1017135